TimeMST,TemperatureF,Dew PointF,Humidity,Sea Level PressureIn,VisibilityMPH,Wind Direction,Wind SpeedMPH,Gust SpeedMPH,PrecipitationIn,Events,Conditions,WindDirDegrees,DateUTC
12:53 AM,10.9,7.0,84,30.23,10.0,NE,6.9,-,N/A,,Overcast,50,2014-02-25 07:53:00
1:53 AM,10.9,7.0,84,30.26,10.0,NE,12.7,-,N/A,,Overcast,40,2014-02-25 08:53:00
2:53 AM,12.9,8.1,81,30.28,4.0,ENE,13.8,-,0.00,Snow,Light Snow,60,2014-02-25 09:53:00
3:10 AM,12.0,8.1,84,30.05,2.5,ENE,12.7,23.0,0.00,Snow,Light Snow,60,2014-02-25 10:10:00
3:23 AM,10.9,7.0,84,30.06,2.0,ENE,13.8,-,0.00,Snow,Light Snow,60,2014-02-25 10:23:00
3:34 AM,12.0,8.1,84,30.06,1.5,ENE,19.6,23.0,0.00,Snow,Light Snow,60,2014-02-25 10:34:00
3:46 AM,12.0,8.1,84,30.06,1.0,ENE,19.6,-,0.00,Snow,Light Snow,60,2014-02-25 10:46:00
3:53 AM,12.0,8.1,84,30.29,1.0,ENE,17.3,-,0.00,Snow,Light Snow,60,2014-02-25 10:53:00
4:07 AM,12.0,8.1,84,30.07,1.2,NE,20.7,-,0.00,Snow,Light Snow,50,2014-02-25 11:07:00
4:25 AM,12.0,8.1,84,30.08,1.8,NE,18.4,-,0.00,Snow,Light Snow,50,2014-02-25 11:25:00
4:36 AM,12.0,9.0,88,30.09,2.0,NE,15.0,-,0.00,Snow,Light Snow,50,2014-02-25 11:36:00
4:43 AM,12.0,9.0,88,30.10,1.2,NE,11.5,-,0.00,Snow,Light Snow,50,2014-02-25 11:43:00
4:53 AM,12.0,9.0,88,30.34,1.2,NE,8.1,-,0.00,Snow,Light Snow,40,2014-02-25 11:53:00
5:01 AM,12.0,9.0,88,30.11,1.0,NE,6.9,-,0.01,Snow,Light Snow,50,2014-02-25 12:01:00
5:09 AM,12.0,9.0,88,30.11,0.8,NE,11.5,-,0.01,Snow,Light Snow,40,2014-02-25 12:09:00
5:19 AM,12.0,9.0,88,30.12,1.0,NE,12.7,-,0.01,Snow,Light Snow,40,2014-02-25 12:19:00
5:50 AM,12.2,8.6,85,30.13,1.2,NE,19.6,-,0.01,Snow,Light Snow,50,2014-02-25 12:50:00
5:53 AM,12.0,9.0,88,30.37,1.0,NE,19.6,-,0.01,Snow,Light Snow,50,2014-02-25 12:53:00
6:02 AM,12.0,8.1,84,30.13,1.2,NE,21.9,-,0.00,Snow,Light Snow,40,2014-02-25 13:02:00
6:53 AM,12.0,8.1,84,30.40,2.0,NE,15.0,-,0.00,Snow,Light Snow,40,2014-02-25 13:53:00
7:03 AM,12.0,8.1,84,30.16,1.8,NE,18.4,-,0.00,Snow,Light Snow,40,2014-02-25 14:03:00
7:14 AM,12.0,8.1,84,30.17,2.0,NE,19.6,-,0.00,Snow,Light Snow,40,2014-02-25 14:14:00
7:43 AM,10.9,7.0,84,30.18,3.0,NNE,16.1,-,0.00,Snow,Light Snow,30,2014-02-25 14:43:00
7:53 AM,10.9,7.0,84,30.43,3.0,NNE,15.0,-,0.00,Snow,Light Snow,30,2014-02-25 14:53:00
8:07 AM,10.9,7.0,84,30.19,5.0,NNE,11.5,-,0.00,Snow,Light Snow,30,2014-02-25 15:07:00
8:53 AM,10.9,6.1,81,30.45,10.0,NE,15.0,-,0.00,,Mostly Cloudy,40,2014-02-25 15:53:00
9:53 AM,12.0,7.0,80,30.49,10.0,NE,20.7,-,N/A,,Overcast,40,2014-02-25 16:53:00
10:53 AM,12.9,7.0,77,30.50,10.0,NE,16.1,-,N/A,,Overcast,50,2014-02-25 17:53:00
11:19 AM,15.1,7.0,70,30.27,9.0,NE,15.0,-,0.00,,Overcast,50,2014-02-25 18:19:00
11:27 AM,15.1,7.0,70,30.27,10.0,NE,12.7,-,0.00,,Overcast,50,2014-02-25 18:27:00
11:53 AM,15.1,5.0,64,30.50,10.0,NE,10.4,-,0.00,,Mostly Cloudy,40,2014-02-25 18:53:00
12:11 PM,16.0,6.1,65,30.27,10.0,NE,9.2,-,N/A,,Scattered Clouds,50,2014-02-25 19:11:00
12:53 PM,17.1,7.0,65,30.49,10.0,NNE,5.8,-,N/A,,Clear,20,2014-02-25 19:53:00
1:53 PM,15.1,7.0,70,30.48,10.0,Calm,Calm,-,N/A,,Clear,0,2014-02-25 20:53:00
2:53 PM,19.0,5.0,54,30.44,10.0,North,4.6,-,N/A,,Clear,360,2014-02-25 21:53:00
3:53 PM,19.9,3.9,50,30.45,10.0,Calm,Calm,-,N/A,,Clear,0,2014-02-25 22:53:00
4:53 PM,15.1,3.9,61,30.46,10.0,SW,3.5,-,N/A,,Clear,230,2014-02-25 23:53:00
5:53 PM,10.9,3.9,73,30.47,10.0,SSW,6.9,-,N/A,,Clear,200,2014-02-26 00:53:00
6:53 PM,8.1,1.0,73,30.46,10.0,South,9.2,-,N/A,,Clear,170,2014-02-26 01:53:00
7:53 PM,9.0,1.0,70,30.44,10.0,South,8.1,-,N/A,,Clear,170,2014-02-26 02:53:00
8:53 PM,1.0,-4.0,79,30.46,10.0,SE,6.9,-,N/A,,Clear,130,2014-02-26 03:53:00
9:53 PM,-0.0,-4.0,83,30.46,10.0,SW,3.5,-,N/A,,Clear,230,2014-02-26 04:53:00
10:53 PM,3.0,-2.9,76,30.43,10.0,South,9.2,-,N/A,,Clear,170,2014-02-26 05:53:00
11:53 PM,1.9,-2.9,80,30.41,10.0,South,6.9,-,N/A,,Clear,190,2014-02-26 06:53:00